QPF
0.00 0.00 0.00 0.00 0.00 0.00 0.00 0.00 0.00 0.00 0.00 0.00 0.00 0.00 0.00 0.00 0.00 0.00 0.00 0.00 0.00 0.00 0.00 0.00 0.00 0.00 0.00 0.00 0.00 0.00 0.00 0.00 0.00 0.00 0.00 0.00 0.00 0.00 0.00 0.00 0.00 0.00 0.00 0.00 0.00
0.00 0.00 0.00 0.00 0.00 0.00 0.00 0.00 0.00 0.00 0.00 0.00 0.00 0.00 0.00 0.00 0.00 0.00 0.00 0.00 0.00 0.00 0.00 0.00 0.00 0.00 0.00 0.00 0.00 0.00 0.00 0.00 0.00 0.00 0.00 0.00 0.00 0.00 0.00 0.00 0.00 0.00 0.00 0.00 0.00
0.00 0.00 0.00 0.00 0.00 0.00 0.00 0.00 0.00 0.00 0.00 0.00 0.00 0.00 0.00 0.00 0.00 0.00 0.00 0.00 0.00 0.00 0.00 0.00 0.00 0.00 0.00 0.00 0.00 0.00 0.00 0.00 0.00 0.00 0.00 0.00 0.00 0.00 0.00 0.00 0.00 0.00 0.00 0.00 0.00
0.00 0.00 0.00 0.00 0.00 0.00 0.00 0.00 0.00 0.00 0.00 0.00 0.00 0.00 0.00 0.00 0.00 0.00 0.00 0.00 0.00 0.00 0.00 0.00 0.00 0.00 0.00 0.00 0.00 0.00 0.00 0.00 0.00 0.00 0.00 0.00 0.00 0.00 0.00 0.00 0.00 0.00 0.00 0.00 0.00
0.00 0.00 0.00 0.00 0.00 0.00 0.00 0.00 0.00 0.00 0.00 0.00 0.00 0.00 0.00 0.00 0.00 0.00 0.00 0.00 0.00 0.00 0.00 0.00 0.00 0.00 0.00 0.00 0.00 0.00 0.00 0.00 0.00 0.00 0.00 0.00 0.00 0.00 0.00 0.00 0.00 0.00 0.00 0.00 0.00
0.00 0.00 0.00 0.00 0.00 0.00 0.00 0.00 0.00 0.00 0.00 0.00 0.00 0.00 0.00 0.00 0.00 0.00 0.00 0.00 0.00 0.00 0.00 0.00 0.00 0.00 0.00 0.00 0.00 0.00 0.00 0.00 0.00 0.00 0.00 0.00 0.00 0.00 0.00 0.00 0.00 0.00 0.00 0.00 0.00
0.00 0.00 0.00 0.00 0.00 0.00 0.00 0.00 0.00 0.00 0.00 0.00 0.00 0.00 0.00 0.00 0.00 0.00 0.00 0.00 0.00 0.00 0.00 0.00 0.00 0.00 0.00 0.00 0.00 0.00 0.00 0.00 0.00 0.00 0.00 0.00 0.00 0.00 0.00 0.00 0.00 0.00 0.00 0.00 0.00
0.00 0.00 0.00 0.00 0.00 0.00 0.00 0.00 0.00 0.00 0.00 0.00 0.00 0.00 0.00 0.00 0.00 0.00 0.00 0.00 0.00 0.00 0.00 0.00 0.00 0.00 0.00 0.00 0.00 0.00 0.00 0.00 0.00 0.00 0.00 0.00 0.00 0.00 0.00 0.00 0.00 0.00 0.00 0.00 0.00
0.00 0.00 0.00 0.00 0.00 0.00 0.00 0.00 0.00 0.00 0.00 0.00 0.00 0.00 0.00 0.00 0.00 0.00 0.00 0.00 0.00 0.00 0.00 0.00 0.00 0.00 0.00 0.00 0.00 0.00 0.00 0.00 0.00 0.00 0.00 0.00 0.00 0.00 0.00 0.00 0.00 0.00 0.00 0.00 0.00
0.00 0.00 0.00 0.00 0.00 0.00 0.00 0.00 0.00 0.00 0.00 0.00 0.00 0.00 0.00 0.00 0.00 0.00 0.00 0.00 0.00 0.00 0.00 0.00 0.00 0.00 0.00 0.00 0.00 0.00 0.00 0.00 0.00 0.00 0.00 0.00 0.00 0.00 0.00 0.00 0.00 0.00 0.00 0.00 0.00
0.00 0.00 0.00 0.00 0.00 0.00 0.00 0.00 0.00 0.00 0.00 0.00 0.00 0.00 0.00 0.00 0.00 0.00 0.00 0.00 0.00 0.00 0.00 0.00 0.00 0.00 0.00 0.00 0.00 0.00 0.00 0.00 0.00 0.00 0.00 0.00 0.00 0.00 0.00 0.00 0.00 0.00 0.00 0.00 0.00
0.00 0.00 0.00 0.00 0.00 0.00 0.00 0.00 0.00 0.00 0.00 0.00 0.00 0.00 0.00 0.00 0.00 0.00 0.00 0.00 0.00 0.00 0.00 0.00 0.00 0.00 0.00 0.00 0.00 0.00 0.00 0.00 0.00 0.00 0.00 0.00 0.00 0.00 0.00 0.00 0.00 0.00 0.00 0.00 0.00
0.00 0.00 0.00 0.00 0.00 0.00 0.00 0.00 0.00 0.00 0.00 0.00 0.00 0.00 0.00 0.00 0.00 0.00 0.00 0.00 0.00 0.00 0.00 0.00 0.00 0.00 0.00 0.00 0.00 0.00 0.00 0.00 0.00 0.00 0.00 0.00 0.00 0.00 0.00 0.00 0.00 0.00 0.00 0.00 0.00
0.00 0.00 0.00 0.00 0.00 0.00 0.00 0.00 0.00 0.00 0.00 0.00 0.00 0.00 0.00 0.00 0.00 0.00 0.00 0.00 0.00 0.00 0.00 0.00 0.00 0.00 0.00 0.00 0.00 0.00 0.00 0.00 0.00 0.00 0.00 0.00 0.00 0.00 0.00 0.00 0.00 0.00 0.00 0.00 0.00
0.00 0.00 0.00 0.00 0.00 0.00 0.00 0.00 0.00 0.00 0.00 0.00 0.00 0.00 0.00 0.00 0.00 0.00 0.00 0.00 0.00 0.00 0.00 0.00 0.00 0.00 0.00 0.00 0.00 0.00 0.00 0.00 0.00 0.00 0.00 0.00 0.00 0.00 0.00 0.00 0.00 0.00 0.00 0.00 0.00
0.00 0.00 0.00 0.00 0.00 0.00 0.00 0.00 0.00 0.00 0.00 0.00 0.00 0.00 0.00 0.00 0.00 0.00 0.00 0.00 0.00 0.00 0.00 0.00 0.00 0.00 0.00 0.00 0.00 0.00 0.00 0.00 0.00 0.00 0.00 0.00 0.00 0.00 0.00 0.00 0.00 0.00 0.00 0.00 0.00
0.00 0.00 0.00 0.00 0.00 0.00 0.00 0.00 0.00 0.00 0.00 0.00 0.00 0.00 0.00 0.00 0.00 0.00 0.00 0.00 0.00 0.00 0.00 0.00 0.00 0.00 0.00 0.00 0.00 0.00 0.00 0.00 0.00 0.00 0.00 0.00 0.00 0.00 0.00 0.00 0.00 0.00 0.00 0.00 0.00
0.00 0.00 0.00 0.00 0.00 0.00 0.00 0.00 0.00 0.00 0.00 0.00 0.00 0.00 0.00 0.00 0.00 0.00 0.00 0.00 0.00 0.00 0.00 0.00 0.00 0.00 0.00 0.00 0.00 0.00 0.00 0.00 0.00 0.00 0.00 0.00 0.00 0.00 0.00 0.00 0.00 0.00 0.00 0.00 0.00
0.00 0.00 0.00 0.00 0.00 0.00 0.00 0.00 0.00 0.00 0.00 0.00 0.00 0.00 0.00 0.00 0.00 0.00 0.00 0.00 0.00 0.00 0.00 0.00 0.00 0.00 0.00 0.00 0.00 0.00 0.00 0.00 0.00 0.00 0.00 0.00 0.00 0.00 0.00 0.00 0.00 0.00 0.00 0.00 0.00
0.00 0.00 0.00 0.00 0.00 0.00 0.00 0.00 0.00 0.00 0.00 0.00 0.00 0.00 0.00 0.00 0.00 0.00 0.00 0.00 0.00 0.00 0.00 0.00 0.00 0.00 0.00 0.00 0.00 0.00 0.00 0.00 0.00 0.00 0.00 0.00 0.00 0.00 0.00 0.00 0.00 0.00 0.00 0.00 0.00
0.00 0.00 0.00 0.00 0.00 0.00 0.00 0.00 0.00 0.00 0.00 0.00 0.00 0.00 0.00 0.00 0.00 0.00 0.00 0.00 0.00 0.00 0.00 0.00 0.00 0.00 0.00 0.00 0.00 0.00 0.00 0.00 0.00 0.00 0.00 0.00 0.00 0.00 0.00 0.00 0.00 0.00 0.00 0.00 0.00
0.00 0.00 0.00 0.00 0.00 0.00 0.00 0.00 0.00 0.00 0.00 0.00 0.00 0.00 0.00 0.00 0.00 0.00 0.00 0.00 0.00 0.00 0.00 0.00 0.00 0.00 0.00 0.00 0.00 0.00 0.00 0.00 0.00 0.00 0.00 0.00 0.00 0.00 0.00 0.00 0.00 0.00 0.00 0.00 0.00
0.00 0.00 0.00 0.00 0.00 0.00 0.00 0.00 0.00 0.00 0.00 0.00 0.00 0.00 0.00 0.00 0.00 0.00 0.00 0.00 0.00 0.00 0.00 0.00 0.00 0.00 0.00 0.00 0.00 0.00 0.00 0.00 0.00 0.00 0.00 0.00 0.00 0.00 0.00 0.00 0.00 0.00 0.00 0.00 0.00
0.00 0.00 0.00 0.00 0.00 0.00 0.00 0.00 0.00 0.00 0.00 0.00 0.00 0.00 0.00 0.00 0.00 0.00 0.00 0.00 0.00 0.00 0.00 0.00 0.00 0.00 0.00 0.00 0.00 0.00 0.00 0.00 0.00 0.00 0.00 0.00 0.00 0.00 0.00 0.00 0.00 0.00 0.00 0.00 0.00
0.00 0.00 0.06 0.05 0.03 0.00 0.00 0.00 0.00 0.00 0.00 0.00 0.00 0.00 0.00 0.00 0.00 0.00 0.00 0.00 0.00 0.00 0.00 0.00 0.00 0.00 0.00 0.00 0.00 0.00 0.00 0.00 0.00 0.00 0.00 0.00 0.00 0.00 0.00 0.00 0.00 0.00 0.00 0.00 0.00
0.01 0.03 0.02 0.01 0.03 0.00 0.00 0.00 0.00 0.00 0.00 0.00 0.00 0.00 0.00 0.00 0.00 0.00 0.00 0.00 0.00 0.00 0.00 0.00 0.00 0.00 0.00 0.00 0.00 0.00 0.00 0.00 0.00 0.00 0.00 0.00 0.00 0.00 0.00 0.00 0.00 0.00 0.00 0.00 0.00
0.02 0.04 0.04 0.01 0.00 0.01 0.04 0.00 0.00 0.00 0.00 0.00 0.00 0.00 0.00 0.00 0.00 0.00 0.00 0.00 0.00 0.00 0.00 0.00 0.00 0.00 0.00 0.00 0.00 0.00 0.00 0.00 0.00 0.00 0.00 0.00 0.00 0.00 0.00 0.00 0.00 0.00 0.00 0.00 0.00
MSLP
1019.07 1018.57 1018.06 1017.54 1016.93 1016.39 1015.90 1015.39 1014.87 1014.46 1014.05 1013.53 1013.11 1012.67 1012.11 1011.41 1010.12 1009.29 1007.97 1005.47 1005.09 1005.01 1005.58 1005.19 1005.66 1005.09 1004.28 1003.81 1003.25 1002.97 1003.78 1003.35 1002.85 1002.95 1003.33 1003.51 1004.19 1005.25 1005.95 1007.72 1008.40 1009.10 1010.22 1011.78 1012.51
1019.07 1018.55 1018.08 1017.47 1016.86 1016.35 1015.78 1015.24 1014.62 1014.11 1013.69 1013.30 1012.77 1012.39 1012.00 1011.49 1010.37 1007.67 1004.66 1004.13 1004.32 1004.89 1005.26 1004.63 1004.72 1004.07 1003.62 1002.66 1002.15 1002.33 1002.84 1002.80 1001.93 1002.13 1002.86 1003.34 1004.17 1004.91 1006.15 1007.75 1009.10 1009.97 1011.22 1011.99 1012.52
1019.19 1018.62 1017.98 1017.40 1016.86 1016.20 1015.62 1015.05 1014.50 1013.94 1013.38 1012.96 1012.55 1011.99 1011.69 1011.43 1009.85 1005.12 1003.18 1003.09 1003.96 1004.49 1004.42 1004.13 1004.02 1003.63 1003.01 1002.25 1000.95 1000.56 1000.95 1001.05 1001.37 1001.75 1002.42 1003.29 1003.75 1004.37 1005.80 1007.79 1008.66 1009.72 1011.11 1011.77 1012.31
1019.12 1018.53 1017.93 1017.35 1016.71 1016.06 1015.45 1014.78 1014.15 1013.62 1013.14 1012.61 1012.22 1011.85 1011.31 1010.88 1008.03 1003.85 1003.61 1003.37 1003.76 1004.40 1004.63 1004.38 1003.49 1003.49 1002.98 1002.15 1000.53 1000.46 1000.01 1000.26 1001.09 1001.53 1002.23 1002.93 1003.41 1003.77 1005.38 1007.43 1008.60 1009.63 1010.69 1011.49 1012.16
1019.05 1018.43 1017.75 1016.99 1016.37 1015.78 1015.12 1014.46 1013.80 1013.18 1012.77 1012.35 1011.93 1011.55 1010.76 1009.77 1005.76 1003.33 1003.77 1004.10 1004.40 1004.61 1004.33 1004.31 1003.69 1003.32 1002.72 1001.71 1000.74 999.73 999.81 1000.11 1000.74 1001.43 1002.04 1002.49 1003.47 1004.40 1005.93 1007.38 1008.58 1009.54 1010.61 1011.29 1012.05
1018.95 1018.28 1017.54 1016.75 1015.92 1015.19 1014.56 1013.98 1013.30 1012.65 1012.25 1011.95 1011.71 1011.49 1010.85 1008.06 1003.31 1002.53 1003.24 1004.11 1003.78 1004.19 1003.87 1003.84 1003.00 1002.71 1002.26 1001.66 1000.91 999.73 999.54 1000.26 1000.83 1001.34 1001.99 1002.82 1003.77 1004.42 1006.17 1007.19 1008.38 1009.31 1010.29 1010.83 1011.21
1018.94 1018.12 1017.32 1016.51 1015.69 1014.80 1013.93 1013.30 1012.69 1012.04 1011.54 1011.39 1011.35 1010.99 1009.31 1004.90 1002.37 1002.64 1002.82 1002.83 1002.90 1003.22 1003.47 1003.21 1002.85 1002.93 1001.84 1001.49 1000.30 999.92 1000.08 1000.44 1001.04 1001.28 1002.17 1002.87 1004.37 1005.03 1005.90 1006.67 1008.06 1009.02 1009.73 1010.30 1010.64
1018.83 1018.07 1017.19 1016.20 1015.30 1014.43 1013.46 1012.48 1011.73 1011.17 1010.84 1010.65 1010.81 1010.37 1007.33 1002.79 1002.09 1002.17 1002.36 1002.27 1002.01 1002.33 1002.74 1002.79 1002.51 1002.61 1002.26 1001.73 1001.00 1000.98 1000.17 1000.90 1001.03 1001.35 1001.94 1002.65 1004.41 1005.19 1005.77 1006.53 1007.42 1008.13 1008.93 1009.83 1010.25
1018.85 1017.87 1016.98 1015.97 1014.92 1013.94 1012.91 1011.61 1010.32 1009.97 1010.05 1010.23 1010.34 1009.41 1005.19 1001.37 1001.69 1001.14 1001.23 1001.45 1001.45 1001.84 1002.20 1002.37 1002.48 1002.57 1002.28 1002.45 1002.09 1001.18 1000.99 1000.83 1001.58 1001.79 1002.13 1002.95 1004.60 1005.09 1005.54 1006.33 1007.03 1007.42 1007.84 1008.35 1009.47
1018.91 1017.96 1016.89 1015.72 1014.50 1013.60 1012.35 1010.33 1008.91 1009.31 1009.41 1009.48 1008.71 1008.21 1003.66 1000.71 999.95 1000.35 1000.51 1000.71 1001.01 1001.59 1002.05 1002.32 1002.55 1002.73 1002.69 1002.91 1002.43 1001.74 1001.37 1001.69 1001.82 1001.90 1002.21 1003.36 1003.95 1004.50 1005.23 1006.16 1006.55 1006.73 1007.23 1007.73 1008.30
1018.87 1017.87 1016.77 1015.55 1014.10 1013.20 1012.37 1010.15 1008.99 1009.04 1008.21 1006.57 1005.03 1003.27 1000.51 999.77 999.59 999.64 999.71 1000.31 1000.59 1001.17 1001.87 1002.17 1002.77 1002.43 1002.29 1001.88 1001.39 1001.83 1001.35 1001.59 1001.41 1001.07 1002.27 1003.08 1003.53 1003.81 1004.28 1005.27 1006.13 1006.59 1006.55 1007.19 1007.71
1018.75 1017.79 1016.63 1015.29 1013.72 1012.39 1012.29 1010.84 1008.20 1007.47 1005.67 1004.37 1003.29 1002.48 1001.01 1000.18 999.94 999.07 999.41 1000.19 1000.40 1000.91 1001.63 1002.10 1001.69 1001.49 1001.51 1001.40 1001.09 1001.15 1001.60 1001.03 1000.72 1001.16 1001.42 1002.69 1003.07 1003.29 1003.29 1003.92 1004.85 1005.61 1006.22 1006.56 1007.19
1018.63 1017.79 1016.65 1015.18 1012.85 1011.61 1011.31 1009.33 1007.45 1006.80 1005.89 1001.93 1000.44 1000.04 999.61 999.85 999.06 997.99 998.68 999.49 1000.02 1000.57 1000.94 1000.92 1000.60 1001.23 1000.94 1000.62 1000.45 1000.15 1000.17 1000.37 1000.26 1000.59 1000.75 1002.35 1003.63 1003.36 1002.99 1003.11 1003.73 1004.28 1004.94 1005.71 1006.17
1018.47 1017.73 1016.99 1015.55 1012.27 1012.58 1010.45 1008.17 1007.45 1007.06 1005.71 1000.43 998.25 996.90 998.34 998.91 998.09 997.10 997.65 998.75 999.38 999.76 1000.29 1000.43 1000.22 1000.05 999.94 999.78 999.68 999.35 998.59 998.85 1000.06 1000.87 1001.05 1001.53 1002.59 1002.95 1002.15 1002.29 1002.61 1003.09 1003.66 1004.35 1005.21
1018.25 1017.52 1016.96 1016.89 1015.59 1013.26 1010.24 1009.05 1008.23 1007.48 1004.53 996.37 995.78 994.84 995.82 997.01 996.25 996.15 996.65 997.83 998.55 998.91 999.82 999.24 999.21 999.09 998.96 998.69 998.80 998.37 998.13 998.86 999.37 1000.28 1001.06 1000.69 1001.22 1000.90 1001.54 1001.40 1001.35 1001.89 1002.39 1003.05 1003.74
1017.97 1017.16 1016.53 1015.26 1014.52 1011.85 1010.86 1009.56 1008.27 1007.36 1001.97 995.85 994.47 994.72 995.89 996.67 996.18 996.01 996.58 997.29 998.05 998.77 998.79 998.83 998.24 998.04 997.94 997.87 998.01 997.87 998.36 998.68 999.11 1000.25 1000.75 1000.41 1000.49 999.67 999.99 999.50 1000.06 1000.64 1001.16 1001.84 1002.63
1017.58 1016.43 1015.98 1015.30 1012.99 1010.67 1010.99 1009.91 1008.63 1004.92 998.85 995.43 994.69 994.91 995.24 995.78 996.42 996.19 996.49 997.02 997.52 998.39 998.47 998.49 997.88 997.37 997.09 997.42 997.48 997.79 998.84 999.65 1000.35 1000.23 1000.54 999.63 999.28 998.33 997.33 997.41 998.12 999.01 999.92 1000.59 1001.20
1017.11 1015.58 1013.37 1012.39 1011.42 1011.60 1011.19 1010.42 1007.37 1001.99 999.25 995.22 995.83 994.97 995.08 995.27 995.89 995.93 996.30 996.56 997.12 997.73 998.50 998.38 997.57 996.62 996.19 996.51 997.23 997.55 998.46 999.71 1000.35 1000.54 1000.23 999.25 998.46 996.79 996.11 995.16 996.18 997.45 998.34 999.32 1000.23
1016.74 1014.17 1012.19 1009.89 1009.94 1010.31 1010.73 1009.23 1005.02 1002.11 999.44 999.37 996.80 995.33 995.04 994.86 994.98 995.67 995.68 995.90 996.17 996.95 997.66 997.74 997.12 996.31 995.92 995.97 996.58 997.44 997.56 998.55 999.81 1000.02 1000.20 999.05 997.50 996.11 995.69 995.36 995.63 996.69 997.51 998.33 999.22
1016.93 1014.31 1010.57 1008.70 1008.75 1009.35 1009.47 1007.40 1005.11 1002.43 1001.39 1001.23 999.79 996.63 995.99 994.69 994.90 995.04 995.20 994.45 995.03 995.70 996.66 996.77 997.16 996.11 995.56 995.76 995.82 996.49 997.63 998.40 999.08 1000.27 1000.66 999.28 997.68 996.32 995.62 995.71 995.65 996.24 996.93 997.48 998.12
1016.71 1013.97 1008.56 1007.45 1007.56 1008.38 1007.97 1007.13 1005.96 1003.11 1003.53 1001.91 1000.09 998.90 997.82 997.00 994.76 993.89 993.91 993.87 993.71 994.46 995.49 996.34 996.99 996.06 995.41 995.18 995.72 996.33 997.04 997.95 998.66 999.74 1000.25 999.54 998.13 995.61 995.18 995.32 995.43 995.80 996.14 996.69 997.31
1016.97 1014.45 1008.94 1009.33 1009.19 1008.25 1007.93 1007.23 1006.44 1004.18 1003.63 1002.85 1001.50 1000.08 998.78 997.66 996.46 995.50 993.56 992.55 992.49 993.23 994.17 995.03 995.77 996.22 995.57 994.66 994.73 995.40 996.27 997.37 998.83 999.29 999.46 998.87 997.09 995.31 994.91 994.60 995.05 995.35 995.51 995.95 996.35
1017.54 1014.59 1010.89 1009.69 1009.99 1008.89 1007.93 1006.75 1005.46 1004.19 1003.05 1002.43 1001.45 999.87 999.11 998.51 997.75 996.06 994.49 992.99 992.47 992.17 993.08 994.27 995.07 996.10 995.63 994.99 994.31 994.73 995.70 996.52 997.63 998.63 999.01 998.70 996.30 995.35 995.11 994.99 994.60 994.84 995.23 995.55 996.01
1018.22 1015.09 1012.96 1011.96 1011.66 1010.82 1009.17 1007.17 1005.46 1003.65 1002.51 1001.87 1000.89 1000.27 999.64 999.25 998.57 997.54 996.50 994.69 993.68 993.21 992.00 993.16 994.36 995.12 994.93 994.56 994.19 994.52 995.01 995.73 996.65 997.78 998.21 997.51 996.27 994.99 995.11 994.80 994.53 994.55 995.50 995.76 996.04
1018.34 1016.43 1015.98 1015.17 1013.74 1012.62 1010.91 1008.88 1006.22 1004.23 1002.58 1001.70 1000.57 1000.25 1000.27 1000.39 1000.01 999.55 998.71 996.98 995.51 994.91 993.67 992.91 994.11 994.55 994.56 994.30 993.73 993.72 994.01 994.56 995.42 996.07 996.62 996.59 995.84 994.61 994.56 994.31 994.04 994.59 994.88 995.31 995.79
1018.67 1018.14 1017.15 1016.39 1014.88 1012.93 1011.80 1009.53 1007.13 1005.35 1004.08 1002.79 1002.42 1001.08 1001.07 1001.86 1002.55 1001.97 1001.42 1000.25 998.65 997.31 996.31 994.79 994.63 994.57 994.65 994.17 993.39 993.39 993.59 993.49 993.85 994.53 995.01 995.31 995.03 993.99 993.85 993.99 994.32 994.39 994.54 995.00 995.39
1018.40 1018.20 1017.92 1016.53 1014.71 1013.81 1013.37 1011.29 1009.17 1007.49 1004.92 1004.32 1003.84 1003.29 1002.76 1003.55 1003.25 1002.80 1002.39 1001.64 1000.57 1000.01 998.75 997.23 996.26 995.32 995.03 994.35 993.92 993.24 992.29 992.75 993.13 993.17 993.82 994.42 994.70 994.15 993.89 993.81 993.91 993.98 993.91 994.42 994.66
Thickness
5726 5730 5734 5739 5744 5749 5753 5758 5763 5767 5771 5776 5780 5785 5792 5800 5814 5823 5826 5852 5861 5867 5865 5865 5859 5860 5867 5861 5865 5864 5814 5811 5825 5825 5829 5847 5833 5842 5844 5819 5820 5819 5806 5799 5801
5720 5725 5730 5735 5741 5745 5750 5755 5761 5766 5770 5775 5780 5784 5789 5795 5807 5825 5858 5868 5868 5866 5860 5857 5850 5862 5852 5857 5859 5843 5818 5822 5853 5853 5842 5849 5841 5837 5826 5815 5806 5804 5804 5803 5800
5715 5719 5725 5731 5736 5742 5747 5753 5758 5763 5769 5774 5779 5784 5788 5792 5801 5835 5871 5874 5869 5868 5867 5867 5865 5861 5849 5858 5865 5864 5847 5864 5862 5863 5861 5845 5844 5850 5828 5805 5810 5801 5800 5803 5801
5714 5718 5721 5726 5732 5738 5744 5750 5757 5762 5767 5773 5778 5782 5788 5793 5783 5851 5862 5869 5868 5865 5860 5855 5859 5845 5841 5838 5871 5856 5877 5875 5868 5867 5860 5845 5852 5846 5838 5820 5825 5819 5813 5808 5802
5712 5716 5721 5726 5731 5735 5741 5748 5754 5761 5766 5771 5776 5781 5791 5790 5811 5857 5858 5859 5859 5857 5851 5846 5845 5845 5833 5848 5861 5873 5875 5877 5875 5868 5860 5863 5846 5840 5831 5834 5832 5825 5816 5810 5805
5710 5715 5721 5726 5732 5737 5741 5746 5753 5760 5766 5770 5773 5777 5784 5782 5852 5860 5857 5852 5856 5852 5850 5852 5853 5860 5851 5849 5853 5884 5884 5872 5873 5868 5865 5849 5845 5846 5835 5839 5829 5823 5815 5815 5814
5706 5712 5719 5725 5731 5738 5744 5748 5753 5760 5766 5769 5772 5778 5788 5809 5857 5857 5857 5855 5860 5856 5846 5858 5864 5851 5858 5843 5875 5879 5866 5869 5865 5865 5857 5861 5830 5830 5844 5844 5828 5824 5821 5819 5820
5702 5708 5715 5723 5730 5737 5745 5752 5758 5762 5766 5769 5771 5777 5786 5845 5856 5854 5855 5853 5864 5865 5859 5862 5866 5855 5853 5860 5857 5847 5862 5824 5859 5865 5864 5852 5805 5837 5849 5840 5831 5832 5829 5824 5823
5697 5705 5712 5720 5728 5736 5745 5755 5766 5769 5767 5767 5768 5775 5791 5855 5839 5855 5860 5847 5856 5859 5860 5863 5857 5844 5849 5828 5814 5834 5815 5837 5836 5863 5859 5847 5813 5840 5849 5840 5832 5836 5837 5835 5827
5690 5698 5707 5716 5726 5734 5744 5760 5772 5770 5770 5768 5775 5769 5810 5826 5851 5854 5861 5857 5846 5844 5837 5836 5831 5817 5821 5808 5781 5805 5824 5824 5824 5849 5856 5837 5827 5843 5847 5838 5834 5838 5840 5837 5835
5681 5690 5700 5711 5723 5731 5739 5756 5763 5759 5766 5775 5787 5801 5828 5845 5857 5848 5858 5846 5844 5832 5805 5822 5797 5788 5813 5833 5842 5831 5833 5825 5846 5865 5843 5832 5833 5844 5854 5844 5834 5835 5842 5839 5839
5672 5681 5692 5704 5718 5731 5731 5740 5760 5765 5763 5793 5802 5804 5821 5835 5818 5838 5853 5822 5821 5805 5815 5801 5794 5828 5842 5843 5841 5833 5818 5827 5851 5859 5848 5835 5833 5852 5860 5855 5847 5843 5841 5843 5843
5660 5670 5681 5694 5715 5727 5730 5743 5766 5769 5751 5793 5815 5815 5816 5822 5815 5831 5841 5829 5815 5804 5807 5802 5823 5835 5834 5833 5831 5833 5827 5829 5836 5857 5865 5837 5818 5833 5854 5862 5858 5860 5857 5853 5850
5646 5655 5665 5680 5711 5706 5723 5751 5755 5760 5725 5787 5809 5834 5826 5819 5810 5851 5852 5831 5816 5805 5812 5809 5833 5829 5829 5827 5838 5815 5862 5868 5850 5834 5805 5846 5782 5821 5845 5850 5856 5861 5863 5860 5858
5633 5641 5650 5656 5667 5686 5718 5731 5741 5740 5699 5826 5826 5861 5843 5819 5829 5834 5858 5832 5808 5813 5808 5809 5819 5821 5819 5834 5849 5836 5868 5865 5854 5838 5829 5841 5820 5831 5847 5841 5855 5863 5870 5870 5869
5617 5627 5637 5650 5661 5686 5701 5714 5722 5695 5708 5803 5834 5824 5815 5816 5822 5831 5827 5838 5833 5812 5817 5818 5847 5838 5840 5855 5859 5867 5855 5856 5858 5841 5800 5831 5828 5832 5841 5857 5864 5871 5877 5881 5878
5599 5613 5623 5634 5652 5679 5683 5690 5675 5686 5791 5802 5806 5816 5811 5805 5803 5811 5805 5799 5789 5771 5778 5805 5818 5840 5855 5833 5855 5852 5825 5785 5780 5787 5783 5843 5842 5837 5884 5887 5886 5881 5883 5889 5890
5579 5598 5621 5635 5648 5655 5661 5656 5658 5740 5762 5814 5799 5804 5794 5806 5801 5804 5796 5787 5804 5798 5780 5773 5772 5825 5851 5838 5824 5837 5825 5784 5766 5772 5798 5849 5824 5850 5899 5914 5912 5904 5899 5898 5895
5556 5584 5608 5630 5639 5643 5636 5633 5685 5726 5771 5745 5771 5783 5786 5802 5803 5795 5794 5793 5806 5808 5774 5776 5787 5841 5847 5854 5847 5823 5817 5843 5810 5824 5809 5828 5861 5891 5906 5905 5907 5901 5900 5895 5898
5526 5555 5593 5617 5623 5623 5618 5639 5672 5715 5724 5723 5719 5770 5769 5793 5788 5788 5786 5814 5808 5817 5817 5800 5773 5825 5843 5852 5852 5838 5849 5812 5814 5773 5771 5807 5834 5845 5885 5887 5896 5898 5896 5900 5903
5503 5531 5586 5601 5606 5601 5603 5627 5650 5694 5696 5707 5720 5728 5743 5751 5792 5793 5795 5813 5824 5819 5819 5810 5787 5799 5832 5819 5817 5819 5819 5824 5827 5807 5775 5774 5805 5885 5889 5892 5897 5901 5904 5904 5904
5482 5502 5559 5560 5559 5579 5587 5611 5631 5663 5677 5685 5702 5718 5730 5745 5750 5761 5790 5815 5837 5831 5803 5817 5791 5775 5796 5842 5857 5842 5827 5820 5783 5791 5804 5808 5820 5898 5897 5908 5904 5904 5914 5910 5914
5462 5487 5519 5533 5532 5558 5581 5599 5623 5646 5661 5675 5688 5716 5728 5726 5727 5758 5780 5818 5838 5834 5815 5817 5791 5764 5778 5807 5838 5828 5833 5833 5827 5817 5798 5788 5819 5889 5899 5893 5904 5901 5910 5909 5911
5450 5473 5491 5500 5510 5520 5542 5569 5593 5638 5657 5669 5683 5700 5708 5710 5728 5732 5753 5790 5810 5817 5839 5830 5797 5784 5770 5789 5820 5813 5827 5834 5821 5802 5802 5807 5837 5869 5881 5886 5897 5901 5905 5905 5910
5443 5459 5459 5461 5473 5493 5522 5544 5573 5598 5633 5650 5669 5685 5690 5683 5696 5710 5729 5752 5780 5788 5807 5826 5790 5795 5811 5820 5828 5828 5830 5835 5820 5819 5799 5825 5834 5864 5883 5896 5899 5905 5906 5905 5905
5427 5428 5441 5449 5467 5493 5500 5527 5555 5574 5599 5614 5620 5658 5672 5657 5660 5672 5692 5711 5735 5758 5770 5791 5780 5794 5788 5820 5828 5819 5830 5840 5840 5839 5833 5835 5832 5882 5890 5899 5898 5897 5899 5899 5901
5421 5424 5426 5448 5471 5481 5470 5500 5523 5537 5578 5589 5595 5609 5623 5631 5659 5680 5697 5707 5722 5724 5736 5757 5764 5773 5765 5802 5806 5788 5820 5827 5836 5849 5844 5814 5838 5875 5875 5883 5895 5895 5900 5898 5902